EW6327 Weather Reports


Display with metric or nautical units.
time (UTC)temp
F
wind
direction
speed
MPH
gust
MPH
rain 1hr
in
rain 24hr
in
rain mn
in
humidity
%
barometer
mb
20230203073034 31 243 0.0 1.0 0.00 0.00 0.00 55 1002.6
20230203072530 31 167 0.0 1.0 0.00 0.00 0.00 55 1002.6
20230203072029 31 155 0.0 0.0 0.00 0.00 0.00 55 1002.7
20230203071530 31 236 0.0 0.0 0.00 0.00 0.00 55 1002.7
20230203071028 31 229 0.0 0.0 0.00 0.00 0.00 55 1002.8
20230203070528 31 234 0.0 0.0 0.00 0.00 0.00 55 1002.9
20230203070042 31 242 0.0 0.0 0.00 0.00 0.00 55 1003.0
20230203065527 31 239 0.0 0.0 0.00 0.00 0.00 56 1003.0
20230203065027 31 205 0.0 0.0 0.00 0.00 0.00 55 1003.0
20230203064526 31 265 0.0 0.0 0.00 0.00 0.00 56 1003.0
20230203064026 31 211 0.0 0.0 0.00 0.00 0.00 56 1003.0
20230203063528 31 229 0.0 0.0 0.00 0.00 0.00 56 1003.0
20230203063025 31 246 0.0 0.0 0.00 0.00 0.00 56 1003.1
20230203062525 31 202 0.0 0.0 0.00 0.00 0.00 56 1003.1
20230203062024 31 244 0.0 0.0 0.00 0.00 0.00 55 1003.0
20230203061523 31 273 0.0 1.0 0.00 0.00 0.00 56 1003.1
20230203061022 31 198 0.0 5.0 0.00 0.00 0.00 56 1003.2
20230203060522 31 233 0.0 5.0 0.00 0.00 0.00 55 1003.2
20230203060021 31 188 0.0 3.0 0.00 0.00 0.00 55 1003.3
20230203055521 31 142 0.0 0.0 0.00 0.00 0.00 55 1003.3
20230203055019 31 183 0.0 0.0 0.00 0.00 0.00 55 1003.4
20230203054523 31 231 0.0 1.0 0.00 0.00 0.00 55 1003.5
20230203054019 32 194 0.0 3.0 0.00 0.00 0.00 55 1003.5
20230203053520 32 236 0.0 3.0 0.00 0.00 0.00 55 1003.6
20230203053019 32 243 0.0 4.0 0.00 0.00 0.00 55 1003.6
20230203052519 32 224 0.0 4.0 0.00 0.00 0.00 55 1003.7
20230203052016 32 204 0.0 3.0 0.00 0.00 0.00 56 1003.8
20230203051515 32 186 0.0 3.0 0.00 0.00 0.00 56 1004.0
20230203051014 32 229 0.0 5.0 0.00 0.00 0.00 56 1004.2
20230203050512 32 264 0.0 5.0 0.00 0.00 0.00 56 1004.5
20230203050013 32 243 0.0 1.0 0.00 0.00 0.00 57 1004.6
20230203045510 32 273 0.0 5.0 0.00 0.00 0.00 57 1004.6
20230203045010 32 238 0.0 5.0 0.00 0.00 0.00 57 1004.7
20230203044510 32 271 0.0 1.0 0.00 0.00 0.00 58 1004.7
20230203044012 32 234 0.0 2.0 0.00 0.00 0.00 58 1004.8
20230203043509 31 221 0.0 2.0 0.00 0.00 0.00 58 1004.9
20230203043008 31 262 0.0 3.0 0.00 0.00 0.00 59 1005.0
20230203042507 31 292 0.0 3.0 0.00 0.00 0.00 59 1005.1
20230203042006 31 218 0.0 7.0 0.00 0.00 0.00 60 1005.1
20230203041507 31 159 0.0 3.0 0.00 0.00 0.00 60 1005.2
20230203041005 31 255 0.0 3.0 0.00 0.00 0.00 61 1005.4
20230203040505 31 123 0.0 3.0 0.00 0.00 0.00 62 1005.5
20230203040007 31 186 0.0 0.0 0.00 0.00 0.00 63 1005.6
20230203035503 31 161 0.0 1.0 0.00 0.00 0.00 63 1005.7
20230203035001 31 168 0.0 1.0 0.00 0.00 0.00 64 1005.9
20230203034501 30 221 0.0 0.0 0.00 0.00 0.00 64 1006.0
20230203034100 30 181 0.0 0.0 0.00 0.00 0.00 65 1006.0
20230203033600 30 180 0.0 3.0 0.00 0.00 0.00 65 1006.1
20230203033131 30 165 0.0 3.0 0.00 0.00 0.00 65 1006.1
20230203032603 30 178 0.0 0.0 0.00 0.00 0.00 65 1006.3
20230203032056 30 170 0.0 1.0 0.00 0.00 0.00 65 1006.5
20230203031556 31 209 0.0 2.0 0.00 0.00 0.00 65 1006.7
20230203031054 31 171 0.0 2.0 0.00 0.00 0.00 65 1006.9
20230203030554 31 150 0.0 0.0 0.00 0.00 0.00 64 1007.0
20230203030054 31 217 0.0 0.0 0.00 0.00 0.00 64 1007.2
20230203025555 30 160 0.0 0.0 0.00 0.00 0.00 64 1007.4
20230203025055 30 209 0.0 0.0 0.00 0.00 0.00 64 1007.5
20230203024557 31 192 0.0 0.0 0.00 0.00 0.00 63 1007.5
20230203024051 31 188 0.0 1.0 0.00 0.00 0.00 63 1007.6
20230203023549 31 203 0.0 1.0 0.00 0.00 0.00 63 1007.6
20230203023049 31 165 0.0 0.0 0.00 0.00 0.00 63 1007.6
20230203022549 31 182 0.0 0.0 0.00 0.00 0.00 63 1007.7
20230203022047 31 140 0.0 0.0 0.00 0.00 0.00 62 1007.7
20230203021547 31 175 0.0 0.0 0.00 0.00 0.00 62 1007.8
20230203021047 31 163 0.0 0.0 0.00 0.00 0.00 62 1007.8
20230203020545 31 163 0.0 0.0 0.00 0.00 0.00 62 1008.1
20230203020046 31 232 0.0 1.0 0.00 0.00 0.00 62 1008.2
20230203015545 31 229 0.0 2.0 0.00 0.00 0.00 62 1008.0
20230203015045 31 142 0.0 2.0 0.00 0.00 0.00 62 1008.0
20230203014545 31 238 0.0 2.0 0.00 0.00 0.00 61 1008.3
20230203014045 31 228 0.0 1.0 0.00 0.00 0.00 62 1008.4
20230203013544 31 243 0.0 3.0 0.00 0.00 0.00 62 1008.4
20230203013045 31 232 0.0 3.0 0.00 0.00 0.00 62 1008.5
20230203012542 31 248 0.0 7.0 0.00 0.00 0.00 62 1008.4
20230203012041 31 235 0.0 1.0 0.00 0.00 0.00 62 1008.5
20230203011542 31 251 0.0 0.0 0.00 0.00 0.00 62 1008.4
20230203011041 31 173 0.0 5.0 0.00 0.00 0.00 62 1008.5
20230203010540 31 229 0.0 5.0 0.00 0.00 0.00 61 1008.5
20230203010048 31 252 0.0 2.0 0.00 0.00 0.00 61 1008.7
20230203005539 31 186 0.0 2.0 0.00 0.00 0.00 61 1008.6
20230203005040 31 167 0.0 5.0 0.00 0.00 0.00 60 1008.6
20230203004539 31 121 0.0 5.0 0.00 0.00 0.00 59 1008.9
20230203004038 31 155 0.0 3.0 0.00 0.00 0.00 59 1008.9
20230203003537 31 191 0.0 4.0 0.00 0.00 0.00 58 1009.1
20230203003035 31 192 0.0 0.0 0.00 0.00 0.00 58 1009.2
20230203002534 31 202 0.0 0.0 0.00 0.00 0.00 57 1009.5
20230203002034 32 223 0.0 0.0 0.00 0.00 0.00 57 1009.7
20230203001533 32 228 0.0 0.0 0.00 0.00 0.00 56 1009.7
20230203001036 32 160 0.0 0.0 0.00 0.00 0.00 56 1009.9
20230203000531 32 175 0.0 0.0 0.00 0.00 0.00 55 1010.0
20230203000031 32 140 0.0 0.0 0.00 0.00 0.00 54 1009.9
20230202235533 32 146 0.0 0.0 0.00 0.00 0.00 54 1009.9
20230202235030 32 198 0.0 0.0 0.00 0.00 0.00 53 1010.1
20230202234531 32 171 0.0 0.0 0.00 0.00 0.00 53 1010.1
20230202234029 32 162 0.0 2.0 0.00 0.00 0.00 52 1010.1
20230202233529 32 221 0.0 2.0 0.00 0.00 0.00 51 1010.3
20230202233028 33 176 0.0 1.0 0.00 0.00 0.00 51 1010.4
20230202232529 33 149 0.0 1.0 0.00 0.00 0.00 49 1010.7
20230202232027 33 185 0.0 1.0 0.00 0.00 0.00 49 1010.7
20230202231526 33 186 0.0 1.0 0.00 0.00 0.00 48 1010.9
20230202231025 33 171 0.0 1.0 0.00 0.00 0.00 47 1011.0
20230202230529 33 171 0.0 1.0 0.00 0.00 0.00 47 1010.9
20230202230024 33 250 0.0 2.0 0.00 0.00 0.00 47 1011.0
20230202225522 34 242 0.0 2.0 0.00 0.00 0.00 46 1011.3
20230202225023 34 186 0.0 1.0 0.00 0.00 0.00 46 1011.5
20230202224522 34 244 0.0 1.0 0.00 0.00 0.00 46 1011.6
20230202224022 34 267 0.0 1.0 0.00 0.00 0.00 46 1011.7
20230202223522 34 197 0.0 7.0 0.00 0.00 0.00 46 1011.7
20230202223021 34 232 0.0 7.0 0.00 0.00 0.00 46 1011.8
20230202222521 34 184 0.0 2.0 0.00 0.00 0.00 45 1011.9
20230202222021 34 229 0.0 0.0 0.00 0.00 0.00 45 1012.0
20230202221521 35 235 0.0 8.0 0.00 0.00 0.00 45 1012.1
20230202221021 35 169 0.0 8.0 0.00 0.00 0.00 45 1012.1
20230202220521 35 196 0.0 1.0 0.00 0.00 0.00 45 1011.7
20230202220021 35 247 0.0 9.0 0.00 0.00 0.00 44 1011.7
20230202215520 35 206 0.0 9.0 0.00 0.00 0.00 44 1011.5
20230202215020 36 165 0.0 9.0 0.00 0.00 0.00 44 1011.5
20230202214520 36 169 0.0 5.0 0.00 0.00 0.00 44 1011.6
20230202214018 36 209 0.0 5.0 0.00 0.00 0.00 44 1011.7
20230202213518 36 198 0.0 5.0 0.00 0.00 0.00 44 1011.8
20230202213016 36 266 0.0 6.0 0.00 0.00 0.00 43 1011.8
20230202212516 37 255 0.0 6.0 0.00 0.00 0.00 42 1011.8
20230202212015 37 175 0.0 2.0 0.00 0.00 0.00 41 1011.9
20230202211515 37 167 0.0 8.0 0.00 0.00 0.00 41 1012.1
20230202211013 37 113 0.0 12.0 0.00 0.00 0.00 41 1012.2
20230202210513 37 245 0.0 12.0 0.00 0.00 0.00 41 1012.4
20230202210013 37 125 0.0 10.0 0.00 0.00 0.00 39 1012.4
20230202205516 37 192 0.0 10.0 0.00 0.00 0.00 39 1012.3
20230202205012 37 151 0.0 3.0 0.00 0.00 0.00 39 1012.5
20230202204518 37 249 0.0 4.0 0.00 0.00 0.00 39 1012.6
20230202204011 37 225 0.0 8.0 0.00 0.00 0.00 38 1012.7
20230202203509 37 272 0.0 8.0 0.00 0.00 0.00 38 1012.8
20230202203009 38 256 0.0 7.0 0.00 0.00 0.00 38 1013.0
20230202202510 38 248 0.0 8.0 0.00 0.00 0.00 37 1013.1
20230202202007 38 130 0.0 8.0 0.00 0.00 0.00 37 1013.0
20230202201507 38 176 0.0 1.0 0.00 0.00 0.00 37 1013.3
20230202201006 38 248 0.0 4.0 0.00 0.00 0.00 37 1013.3
20230202200506 38 213 0.0 8.0 0.00 0.00 0.00 37 1013.3
20230202200008 39 167 0.0 8.0 0.00 0.00 0.00 36 1013.3
20230202195506 39 204 0.0 3.0 0.00 0.00 0.00 36 1013.3
20230202195004 39 157 0.0 3.0 0.00 0.00 0.00 36 1013.5
20230202194505 38 225 0.0 1.0 0.00 0.00 0.00 36 1013.6
20230202194002 38 229 0.0 1.0 0.00 0.00 0.00 37 1013.8
20230202193502 38 161 0.0 2.0 0.00 0.00 0.00 37 1013.9
20230202193101 37 259 0.0 4.0 0.00 0.00 0.00 37 1013.9
20230202192600 38 235 0.0 9.0 0.00 0.00 0.00 37 1014.0
20230202192059 38 257 0.0 9.0 0.00 0.00 0.00 36 1014.1
20230202191603 38 164 0.0 7.0 0.00 0.00 0.00 37 1014.1
20230202191058 38 196 0.0 11.0 0.00 0.00 0.00 36 1014.4
20230202190600 38 237 0.0 11.0 0.00 0.00 0.00 35 1014.4
20230202190057 38 239 0.0 9.0 0.00 0.00 0.00 37 1014.6
20230202185554 38 186 0.0 11.0 0.00 0.00 0.00 36 1014.8
20230202185054 38 219 0.0 9.0 0.00 0.00 0.00 36 1015.0
20230202184554 38 124 0.0 2.0 0.00 0.00 0.00 37 1015.0
20230202184053 38 241 0.0 5.0 0.00 0.00 0.00 36 1015.2
20230202183553 38 159 0.0 5.0 0.00 0.00 0.00 35 1015.1
20230202183056 39 240 0.0 4.0 0.00 0.00 0.00 36 1015.2
20230202182549 38 243 0.0 6.0 0.00 0.00 0.00 36 1015.2
20230202182047 38 255 0.0 6.0 0.00 0.00 0.00 36 1015.5
20230202181550 38 256 0.0 1.0 0.00 0.00 0.00 37 1015.8
20230202181047 38 237 0.0 1.0 0.00 0.00 0.00 39 1016.0
20230202180544 37 202 0.0 7.0 0.00 0.00 0.00 38 1016.1
20230202180043 37 240 0.0 7.0 0.00 0.00 0.00 39 1016.1
20230202175541 37 272 0.0 13.0 0.00 0.00 0.00 39 1016.2
20230202175043 37 203 2.0 13.0 0.00 0.00 0.00 39 1016.4
20230202174539 37 279 0.0 8.0 0.00 0.00 0.00 40 1016.8
20230202174038 36 236 0.0 2.0 0.00 0.00 0.00 40 1016.9
20230202173536 36 247 0.0 1.0 0.00 0.00 0.00 41 1017.1
20230202173035 35 300 0.0 8.0 0.00 0.00 0.00 43 1017.3
20230202172534 35 146 0.0 5.0 0.00 0.00 0.00 42 1017.5
20230202172033 34 263 0.0 5.0 0.00 0.00 0.00 44 1017.8
20230202171531 34 251 0.0 1.0 0.00 0.00 0.00 44 1018.0
20230202171029 34 236 0.0 0.0 0.00 0.00 0.00 44 1018.2
20230202170528 34 267 0.0 0.0 0.00 0.00 0.00 45 1018.3
20230202170028 33 167 0.0 0.0 0.00 0.00 0.00 45 1018.5
20230202165526 33 195 0.0 1.0 0.00 0.00 0.00 46 1018.8
20230202165025 33 223 0.0 1.0 0.00 0.00 0.00 45 1019.0
20230202164525 33 173 0.0 8.0 0.00 0.00 0.00 44 1019.0
20230202164025 33 237 0.0 8.0 0.00 0.00 0.00 45 1019.1
20230202163523 34 252 0.0 1.0 0.00 0.00 0.00 46 1019.2
20230202163023 34 173 0.0 3.0 0.00 0.00 0.00 46 1019.3
20230202162522 34 167 0.0 1.0 0.00 0.00 0.00 46 1019.5
20230202162021 33 286 0.0 4.0 0.00 0.00 0.00 47 1019.6
20230202161620 33 247 0.0 9.0 0.00 0.00 0.00 47 1019.7
20230202161020 33 154 0.0 9.0 0.00 0.00 0.00 47 1019.8
20230202160517 33 232 0.0 3.0 0.00 0.00 0.00 48 1020.0
20230202160034 33 192 0.0 8.0 0.00 0.00 0.00 48 1020.1
20230202155517 33 169 1.0 10.0 0.00 0.00 0.00 47 1020.1
20230202155015 33 227 0.0 1.0 0.00 0.00 0.00 48 1020.3
20230202154526 33 274 0.0 1.0 0.00 0.00 0.00 49 1020.5
20230202154013 32 229 0.0 10.0 0.00 0.00 0.00 49 1020.7
20230202153511 32 236 0.0 10.0 0.00 0.00 0.00 50 1020.8
20230202153010 32 240 0.0 8.0 0.00 0.00 0.00 49 1020.9
20230202152509 32 150 0.0 8.0 0.00 0.00 0.00 49 1021.0
20230202152009 31 267 0.0 1.0 0.00 0.00 0.00 51 1021.0
20230202151508 31 204 0.0 1.0 0.00 0.00 0.00 51 1021.0
20230202151008 31 235 0.0 3.0 0.00 0.00 0.00 52 1021.0
20230202150506 31 238 0.0 3.0 0.00 0.00 0.00 52 1021.0
20230202150004 30 228 0.0 0.0 0.00 0.00 0.00 55 1021.2
20230202145504 29 175 0.0 0.0 0.00 0.00 0.00 56 1021.2
20230202145002 29 240 0.0 0.0 0.00 0.00 0.00 58 1021.2
20230202144613 29 241 0.0 1.0 0.00 0.00 0.00 58 1021.3
20230202144103 28 181 0.0 1.0 0.00 0.00 0.00 58 1021.5
20230202143558 28 245 0.0 1.0 0.00 0.00 0.00 61 1021.4
20230202143108 27 250 0.0 0.0 0.00 0.00 0.00 62 1021.5
20230202142555 27 239 0.0 0.0 0.00 0.00 0.00 63 1021.6
20230202142053 27 198 0.0 0.0 0.00 0.00 0.00 63 1021.6
20230202141555 26 261 0.0 0.0 0.00 0.00 0.00 64 1021.6
20230202141051 26 257 0.0 0.0 0.00 0.00 0.00 66 1021.5
20230202140552 25 166 0.0 0.0 0.00 0.00 0.00 66 1021.7
20230202140048 25 166 0.0 0.0 0.00 0.00 0.00 67 1021.6
20230202135547 25 165 0.0 0.0 0.00 0.00 0.00 68 1021.6
20230202135045 24 295 0.0 0.0 0.00 0.00 0.00 70 1021.7
20230202134545 23 330 0.0 0.0 0.00 0.00 0.00 71 1021.7
20230202134048 23 330 0.0 0.0 0.00 0.00 0.00 73 1021.9
20230202133546 22 330 0.0 1.0 0.00 0.00 0.00 75 1021.9
20230202133045 21 330 0.0 1.0 0.00 0.00 0.00 77 1021.9
20230202132541 21 330 0.0 0.0 0.00 0.00 0.00 80 1021.9
20230202132041 20 330 0.0 0.0 0.00 0.00 0.00 82 1022.0
20230202131541 19 330 0.0 0.0 0.00 0.00 0.00 83 1022.0
20230202131040 19 330 0.0 0.0 0.00 0.00 0.00 84 1022.1
20230202130540 19 330 0.0 0.0 0.00 0.00 0.00 84 1022.1
20230202130039 18 330 0.0 0.0 0.00 0.00 0.00 84 1022.0
20230202125539 18 330 0.0 0.0 0.00 0.00 0.00 84 1022.1
20230202125039 18 330 0.0 0.0 0.00 0.00 0.00 84 1022.1
20230202124550 18 330 0.0 0.0 0.00 0.00 0.00 84 1022.1
20230202124039 18 330 0.0 0.0 0.00 0.00 0.00 84 1022.2
20230202123538 18 330 0.0 0.0 0.00 0.00 0.00 83 1022.1
20230202123037 18 330 0.0 0.0 0.00 0.00 0.00 83 1022.2
20230202122537 18 330 0.0 0.0 0.00 0.00 0.00 83 1022.2
20230202122038 18 330 0.0 0.0 0.00 0.00 0.00 83 1022.2
20230202121548 18 330 0.0 0.0 0.00 0.00 0.00 82 1022.2
20230202121035 18 330 0.0 0.0 0.00 0.00 0.00 82 1022.4
20230202120534 18 330 0.0 0.0 0.00 0.00 0.00 81 1022.5
20230202120034 18 330 0.0 0.0 0.00 0.00 0.00 81 1022.5
20230202115533 18 330 0.0 0.0 0.00 0.00 0.00 80 1022.5
20230202115033 18 330 0.0 0.0 0.00 0.00 0.00 80 1022.5
20230202114535 18 330 0.0 0.0 0.00 0.00 0.00 80 1022.5
20230202114032 18 330 0.0 0.0 0.00 0.00 0.00 80 1022.6
20230202113532 18 330 0.0 0.0 0.00 0.00 0.00 80 1022.7
20230202113043 18 330 0.0 0.0 0.00 0.00 0.00 80 1022.7
20230202112531 18 330 0.0 0.0 0.00 0.00 0.00 80 1022.7
20230202112030 19 330 0.0 0.0 0.00 0.00 0.00 80 1022.7
20230202111538 19 330 0.0 0.0 0.00 0.00 0.00 80 1022.7
20230202111029 19 330 0.0 0.0 0.00 0.00 0.00 79 1022.7
20230202110530 19 330 0.0 0.0 0.00 0.00 0.00 79 1022.6
20230202110029 19 330 0.0 0.0 0.00 0.00 0.00 79 1022.5
20230202105529 19 330 0.0 0.0 0.00 0.00 0.00 79 1022.6
20230202105029 19 330 0.0 0.0 0.00 0.00 0.00 79 1022.6
20230202104528 19 330 0.0 0.0 0.00 0.00 0.00 78 1022.6
20230202104027 19 330 0.0 0.0 0.00 0.00 0.00 78 1022.6
20230202103527 19 330 0.0 0.0 0.00 0.00 0.00 78 1022.7
20230202103028 19 330 0.0 0.0 0.00 0.00 0.00 78 1022.6
20230202102526 20 330 0.0 0.0 0.00 0.00 0.00 77 1022.6
20230202102025 20 330 0.0 0.0 0.00 0.00 0.00 77 1022.6
20230202101525 20 330 0.0 0.0 0.00 0.00 0.00 77 1022.7
20230202101025 20 330 0.0 0.0 0.00 0.00 0.00 76 1022.8
20230202100523 20 330 0.0 0.0 0.00 0.00 0.00 76 1022.7
20230202100023 20 330 0.0 0.0 0.00 0.00 0.00 75 1022.7
20230202095523 20 330 0.0 0.0 0.00 0.00 0.00 74 1022.6
20230202095124 20 330 0.0 0.0 0.00 0.00 0.00 74 1022.7
20230202094523 21 330 0.0 0.0 0.00 0.00 0.00 74 1022.7
20230202094023 21 330 0.0 0.0 0.00 0.00 0.00 73 1022.8
20230202093523 21 330 0.0 0.0 0.00 0.00 0.00 73 1022.7
20230202093021 21 330 0.0 0.0 0.00 0.00 0.00 73 1022.7
20230202092522 21 330 0.0 0.0 0.00 0.00 0.00 73 1022.6
20230202092021 21 330 0.0 0.0 0.00 0.00 0.00 74 1022.5
20230202091521 21 330 0.0 0.0 0.00 0.00 0.00 74 1022.6
20230202091021 20 330 0.0 0.0 0.00 0.00 0.00 74 1022.6
20230202090521 20 330 0.0 0.0 0.00 0.00 0.00 74 1022.7
20230202090020 20 330 0.0 0.0 0.00 0.00 0.00 74 1022.7
20230202085521 20 330 0.0 0.0 0.00 0.00 0.00 75 1022.7
20230202085020 20 330 0.0 0.0 0.00 0.00 0.00 75 1022.9
20230202084522 20 330 0.0 0.0 0.00 0.00 0.00 75 1022.8
20230202084020 20 330 0.0 0.0 0.00 0.00 0.00 75 1022.7
20230202083521 20 330 0.0 0.0 0.00 0.00 0.00 75 1022.6
20230202083019 20 330 0.0 0.0 0.00 0.00 0.00 75 1022.5
20230202082518 20 330 0.0 0.0 0.00 0.00 0.00 75 1022.7
20230202082019 20 330 0.0 0.0 0.00 0.00 0.00 74 1022.6
20230202081517 20 330 0.0 0.0 0.00 0.00 0.00 75 1022.9
20230202081016 20 330 0.0 0.0 0.00 0.00 0.00 74 1023.0
20230202080515 20 330 0.0 0.0 0.00 0.00 0.00 73 1023.0
20230202080018 20 330 0.0 0.0 0.00 0.00 0.00 73 1022.9
20230202075516 20 330 0.0 0.0 0.00 0.00 0.00 72 1023.0
20230202075016 20 330 0.0 0.0 0.00 0.00 0.00 72 1023.0
20230202074619 20 330 0.0 0.0 0.00 0.00 0.00 72 1023.0
20230202074014 20 330 0.0 0.0 0.00 0.00 0.00 73 1023.0
20230202073515 20 330 0.0 0.0 0.00 0.00 0.00 72 1022.9